Location: Banff
(51.1667°N, 115.5667°W)
Time: 06:54:33
(UTC+00:00)

S-56A Canister/Altair - Pass Details

Date: 30 November 2020
Orbit: 633 x 2499 km, 38.9° (Epoch: 21 January)

Event Time Altitude Azimuth Distance (km) Brightness Sun altitude
Rises 07:15:30 0° 266° (W) 4,499 - -60.4°
Reaches altitude 10° 07:19:48 10° 251° (WSW) 3,152 - -60.5°
Maximum altitude 07:24:49 20° 209° (SSW) 2,110 - -60.5°
Drops below altitude 10° 07:28:49 10° 163° (SSE) 2,424 - -60.6°
Sets 07:31:36 0° 145° (SE) 3,170 - -60.6°
